Location: Austin
(30.3000°N, 97.7500°W)
Time: 22:41:22
(UTC-05:00)

Cosmos 2082 Rocket - Pass Details

Date: 14 March 2026
Orbit: 831 x 854 km, 71.0° (Epoch: 20 April)

Event Time Altitude Azimuth Distance (km) Brightness Sun altitude
Rises 21:16:08 0° 322° (NW) 3,423 6.1 -21.7°
Reaches altitude 10° 21:19:06 10° 308° (NW) 2,483 5.5 -22.4°
Maximum altitude 21:23:23 22° 259° (W) 1,761 4.6 -23.3°
Drops below altitude 10° 21:27:40 10° 210° (SSW) 2,466 4.8 -24.2°
Sets 21:30:36 0° 195° (SSW) 3,394 5.4 -24.8°
